Regional Weather Roundup
Issued by NWS

Home | Current Version | Previous Version | Graphics & Text | Print | Product List | Glossary On
Versions: 1 2 3 4 5 6 7 8 9 10 11 12 13 14 15 16 17 18 19 20 21 22 23 24 25 26 27 28 29 30 31 32 33 34 35 36 37 38 39 40 41 42 43 44 45 46 47 48 49 50
565
ASUS44 KMEG 210010
RWRTN
TENNESSEE HOURLY STATE WEATHER ROUNDUP
NATIONAL WEATHER SERVICE MEMPHIS TN
600 PM CST SAT JAN 20 2018

TNZ002-004-019-021-049-052-054-088>092-210100-
WEST TENNESSEE

CITY           SKY/WX    TMP DP  RH WIND       PRES   REMARKS
MEMPHIS INTL   MOCLDY    55  51  86 S6        30.11S
JACKSON        CLOUDY    57  46  66 S6        30.12R
DYERSBURG      CLOUDY    53  47  79 S6        30.11R
SOMERVILLE     CLOUDY    59  50  72 S6        30.11R
COVINGTON      CLOUDY    55  50  82 S8        30.11S
UNION CITY     CLOUDY    48  43  81 S8        30.10R
BOLIVAR        CLOUDY    59  48  67 SE7       30.12R
PARIS          CLOUDY    48  41  76 S8        30.10S
HUNTINGDON     CLOUDY    50  43  76 S6        30.11S
LEXINGTON      MOCLDY    59  45  58 S5        30.13R
SELMER         CLOUDY    59  43  55 S8        30.13F
SAVANNAH       CLOUDY    59  41  51 S8        30.15R
$$

TNZ008-025-027-028-033-062-065-066-210100-
NORTH MIDDLE TENNESSEE

CITY           SKY/WX    TMP DP  RH WIND       PRES   REMARKS
NASHVILLE      FAIR      55  33  43 S6        30.17R
PORTLAND       PTCLDY    54  32  43 S7        30.15R
CLARKSVILLE    CLOUDY    55  42  61 S7        30.13S
SMYRNA         FAIR      53  34  48 S5        30.18R
COOKEVILLE     CLEAR     43  30  61 SE3       30.18R
GALLATIN       CLEAR     50  30  46 CALM      30.18R
CROSSVILLE     CLOUDY    50  34  54 CALM      30.20R
$$

TNZ061-075-076-078-094-096-097-210100-
SOUTH MIDDLE TENNESSEE

CITY           SKY/WX    TMP DP  RH WIND       PRES   REMARKS
FAYETTEVILLE   CLEAR     54  36  50 S6        30.18R
TULLAHOMA      CLEAR     48  34  57 S3        30.18S
WINCHESTER     CLEAR     46  34  61 SE5       30.20S
MCMINNVILLE    CLEAR     52  34  50 S3        30.19R
COLUMBIA       CLEAR     54  37  54 S3        30.15R
SHELBYVILLE    CLEAR     50  36  57 SE5       30.18R
$$

TNZ017-018-042-046-047-210100-
NORTHEAST TENNESSEE

CITY           SKY/WX    TMP DP  RH WIND       PRES   REMARKS
TRI CITIES     CLOUDY    44  36  73 CALM      30.22R
ELIZABETHTON   CLOUDY    46  37  71 CALM      30.22R
$$

TNZ012-013-036-069-073-074-210100-
CENTRAL EAST TENNESSEE

CITY           SKY/WX    TMP DP  RH WIND       PRES   REMARKS
KNOXVILLE      FAIR      51  37  58 W3        30.20R
OAK RIDGE      FAIR      46  34  62 CALM      30.22R
DOWNTOWN KNOXV CLEAR     41  36  81 CALM      30.22R
GATLINBURG     CLOUDY    46  37  71 CALM      30.21R
MORRISTOWN     PTCLDY    46  32  57 CALM      30.21R
JACKSBORO      CLOUDY    45  34  65 CALM      30.24R
$$

TNZ083-085-099-210100-
SOUTHEAST TENNESSEE

CITY           SKY/WX    TMP DP  RH WIND       PRES   REMARKS
CHATTANOOGA    FAIR      48  35  60 CALM      30.21S
DAYTON         CLEAR     48  37  66 CALM      30.21R
$$

SKY/WX REPORTED AS FAIR MEANS FEW OR NO CLOUDS BELOW
12 THOUSAND FEET.





USA.gov is the U.S. government's official web portal to all federal, state and local government web resources and services.